User: anonymous
Location: Mentone
(34.5413°N, 85.5351°W)
Time: 04:17:50
(UTC-05:00)
Language:

Tiros 1 despin weight - Orbit

View from above orbital plane
View from above orbital plane
View from above satellite
View from above satellite

Ground track
Ground track

The orbit data is extracted from the following two-line orbital elements,

1 00115U 60002D   14111.92456584  .00003977  00000-0  53757-3 0  3457
2 00115 048.1654 272.4057 0036232 071.8191 055.5298 14.80394872879304
Epoch (UTC): 21 April 2014 22:11:22
Eccentricity: 0.0036232
inclination: 48.1654°
perigee height: 602 km
apogee height: 653 km
right ascension of ascending node: 272.4057°
argument of perigee: 71.8191°
revolutions per day: 14.80394872
mean anomaly at epoch: 55.5298°
orbit number at epoch: 87930

The dashed part of the orbit path shows where the satellite is in the earth's shadow,  

DLR